| time (UTC) | temp C | wind direction | speed KPH | gust KPH | rain 1hr cm | rain 24hr cm | rain mn cm | humidity % | barometer mb |
| 20260502224528 | 16 | 151 | 0.0 | 0.0 | 0.00 | 0.00 | 0.00 | 40 | 1008.2 |
| 20260502224025 | 16 | 230 | 1.6 | 3.2 | 0.00 | 0.00 | 0.00 | 37 | 1008.2 |
| 20260502223523 | 16 | 149 | 0.0 | 1.6 | 0.00 | 0.00 | 0.00 | 38 | 1008.2 |
| 20260502223021 | 16 | 193 | 4.8 | 6.4 | 0.00 | 0.00 | 0.00 | 37 | 1008.3 |
| 20260502222518 | 16 | 217 | 6.4 | 6.4 | 0.00 | 0.00 | 0.00 | 37 | 1008.6 |
| 20260502222014 | 16 | 201 | 6.4 | 6.4 | 0.00 | 0.00 | 0.00 | 36 | 1008.5 |
| 20260502221510 | 16 | 174 | 3.2 | 6.4 | 0.00 | 0.00 | 0.00 | 38 | 1008.4 |
| 20260502221008 | 16 | 152 | 4.8 | 6.4 | 0.00 | 0.00 | 0.00 | 35 | 1008.5 |
| 20260502220503 | 16 | 183 | 3.2 | 4.8 | 0.00 | 0.00 | 0.00 | 36 | 1008.4 |
| 20260502220000 | 16 | 185 | 8.0 | 11.3 | 0.00 | 0.00 | 0.00 | 36 | 1008.5 |
| 20260502215457 | 16 | 190 | 11.3 | 14.5 | 0.00 | 0.00 | 0.00 | 35 | 1008.7 |
| 20260502214954 | 16 | 183 | 9.7 | 14.5 | 0.00 | 0.00 | 0.00 | 34 | 1008.6 |
| 20260502214451 | 17 | 179 | 8.0 | 11.3 | 0.00 | 0.00 | 0.00 | 35 | 1008.9 |
| 20260502213948 | 16 | 189 | 9.7 | 11.3 | 0.00 | 0.00 | 0.00 | 35 | 1009.0 |
| 20260502213445 | 16 | 174 | 8.0 | 9.7 | 0.00 | 0.00 | 0.00 | 34 | 1009.0 |
| 20260502212943 | 16 | 135 | 6.4 | 9.7 | 0.00 | 0.00 | 0.00 | 33 | 1009.1 |
| 20260502212442 | 16 | 195 | 8.0 | 9.7 | 0.00 | 0.00 | 0.00 | 34 | 1008.9 |
| 20260502211939 | 16 | 211 | 12.9 | 16.1 | 0.00 | 0.00 | 0.00 | 34 | 1009.0 |
| 20260502211434 | 16 | 196 | 6.4 | 6.4 | 0.00 | 0.00 | 0.00 | 35 | 1009.1 |
| 20260502210932 | 17 | 150 | 9.7 | 12.9 | 0.00 | 0.00 | 0.00 | 34 | 1009.2 |
| 20260502210428 | 17 | 175 | 4.8 | 6.4 | 0.00 | 0.00 | 0.00 | 34 | 1009.1 |
| 20260502205926 | 17 | 173 | 8.0 | 11.3 | 0.00 | 0.00 | 0.00 | 33 | 1009.4 |
| 20260502205422 | 17 | 211 | 3.2 | 4.8 | 0.00 | 0.00 | 0.00 | 34 | 1009.3 |
| 20260502204919 | 18 | 193 | 12.9 | 16.1 | 0.00 | 0.00 | 0.00 | 33 | 1009.4 |
| 20260502204416 | 17 | 188 | 3.2 | 4.8 | 0.00 | 0.00 | 0.00 | 35 | 1009.6 |
| 20260502203914 | 17 | 182 | 3.2 | 4.8 | 0.00 | 0.00 | 0.00 | 33 | 1009.7 |
| 20260502203411 | 17 | 220 | 11.3 | 12.9 | 0.00 | 0.00 | 0.00 | 33 | 1009.7 |
| 20260502202907 | 16 | 183 | 3.2 | 4.8 | 0.00 | 0.00 | 0.00 | 33 | 1009.9 |
| 20260502202404 | 15 | 140 | 0.0 | 1.6 | 0.00 | 0.00 | 0.00 | 37 | 1010.0 |
| 20260502201902 | 15 | 206 | 11.3 | 14.5 | 0.00 | 0.00 | 0.00 | 35 | 1010.0 |
| 20260502201357 | 16 | 201 | 1.6 | 3.2 | 0.00 | 0.00 | 0.00 | 35 | 1010.2 |
| 20260502200855 | 16 | 145 | 1.6 | 1.6 | 0.00 | 0.00 | 0.00 | 35 | 1010.3 |
| 20260502200350 | 15 | 190 | 1.6 | 3.2 | 0.00 | 0.00 | 0.00 | 34 | 1010.2 |
| 20260502195848 | 16 | 176 | 8.0 | 9.7 | 0.00 | 0.00 | 0.00 | 33 | 1010.5 |
| 20260502195345 | 15 | 166 | 11.3 | 14.5 | 0.00 | 0.00 | 0.00 | 35 | 1010.5 |
| 20260502194841 | 16 | 218 | 3.2 | 3.2 | 0.00 | 0.00 | 0.00 | 37 | 1010.6 |
| 20260502194338 | 16 | 163 | 9.7 | 12.9 | 0.00 | 0.00 | 0.00 | 33 | 1010.7 |
| 20260502193834 | 16 | 208 | 14.5 | 17.7 | 0.00 | 0.00 | 0.00 | 32 | 1010.7 |
| 20260502193332 | 16 | 143 | 3.2 | 6.4 | 0.00 | 0.00 | 0.00 | 34 | 1010.7 |
| 20260502192827 | 16 | 167 | 14.5 | 17.7 | 0.00 | 0.00 | 0.00 | 33 | 1010.8 |
| 20260502192324 | 16 | 188 | 8.0 | 11.3 | 0.00 | 0.00 | 0.00 | 34 | 1010.8 |
| 20260502191821 | 16 | 159 | 11.3 | 12.9 | 0.00 | 0.00 | 0.00 | 33 | 1011.0 |
| 20260502191320 | 17 | 181 | 14.5 | 20.9 | 0.00 | 0.00 | 0.00 | 32 | 1010.9 |
| 20260502190816 | 15 | 218 | 3.2 | 6.4 | 0.00 | 0.00 | 0.00 | 35 | 1011.2 |
| 20260502190314 | 16 | 165 | 14.5 | 16.1 | 0.00 | 0.00 | 0.00 | 32 | 1011.5 |
| 20260502185809 | 16 | 133 | 6.4 | 12.9 | 0.00 | 0.00 | 0.00 | 34 | 1011.2 |
| 20260502185305 | 15 | 18 | 1.6 | 3.2 | 0.00 | 0.00 | 0.00 | 34 | 1011.2 |
| 20260502184802 | 15 | 205 | 19.3 | 24.1 | 0.00 | 0.00 | 0.00 | 32 | 1011.3 |
| 20260502184257 | 15 | 142 | 6.4 | 11.3 | 0.00 | 0.00 | 0.00 | 36 | 1011.5 |
| 20260502183754 | 16 | 192 | 6.4 | 11.3 | 0.00 | 0.00 | 0.00 | 35 | 1011.8 |
| 20260502183250 | 15 | 184 | 6.4 | 12.9 | 0.00 | 0.00 | 0.00 | 33 | 1011.7 |
| 20260502182746 | 15 | 317 | 1.6 | 3.2 | 0.00 | 0.00 | 0.00 | 31 | 1011.6 |
| 20260502182241 | 15 | 194 | 6.4 | 9.7 | 0.00 | 0.00 | 0.00 | 32 | 1011.8 |
| 20260502181737 | 15 | 246 | 3.2 | 4.8 | 0.00 | 0.00 | 0.00 | 34 | 1012.1 |
| 20260502181232 | 15 | 181 | 0.0 | 1.6 | 0.00 | 0.00 | 0.00 | 37 | 1012.0 |
| 20260502180728 | 14 | 161 | 9.7 | 12.9 | 0.00 | 0.00 | 0.00 | 32 | 1012.1 |
| 20260502180225 | 15 | 85 | 9.7 | 12.9 | 0.00 | 0.00 | 0.00 | 32 | 1012.1 |
| 20260502170144 | 12 | 263 | 4.8 | 4.8 | 0.00 | 0.00 | 0.00 | 33 | 1013.1 |
| 20260502164130 | 12 | 284 | 1.6 | 3.2 | 0.00 | 0.00 | 0.00 | 34 | 1013.4 |
| 20260502163626 | 13 | 157 | 4.8 | 9.7 | 0.00 | 0.00 | 0.00 | 32 | 1013.6 |
| 20260502163123 | 12 | 169 | 8.0 | 11.3 | 0.00 | 0.00 | 0.00 | 37 | 1013.5 |
| 20260502162620 | 12 | 221 | 8.0 | 9.7 | 0.00 | 0.00 | 0.00 | 32 | 1013.7 |
| 20260502162117 | 12 | 18 | 3.2 | 3.2 | 0.00 | 0.00 | 0.00 | 33 | 1013.7 |
| 20260502161614 | 12 | 243 | 9.7 | 11.3 | 0.00 | 0.00 | 0.00 | 35 | 1014.2 |
| 20260502161111 | 11 | 194 | 4.8 | 6.4 | 0.00 | 0.00 | 0.00 | 34 | 1013.9 |
| 20260502160609 | 12 | 152 | 12.9 | 14.5 | 0.00 | 0.00 | 0.00 | 35 | 1013.9 |
| 20260502160108 | 11 | 76 | 0.0 | 0.0 | 0.00 | 0.00 | 0.00 | 37 | 1014.1 |
| 20260502152022 | 11 | 208 | 6.4 | 12.9 | 0.00 | 0.00 | 0.00 | 38 | 1014.6 |
| 20260502151519 | 11 | 189 | 3.2 | 4.8 | 0.00 | 0.00 | 0.00 | 35 | 1014.6 |
| 20260502151016 | 10 | 176 | 8.0 | 11.3 | 0.00 | 0.00 | 0.00 | 38 | 1014.8 |
| 20260502150514 | 11 | 226 | 9.7 | 14.5 | 0.00 | 0.00 | 0.00 | 38 | 1014.7 |
| 20260502130359 | 3 | 163 | 1.6 | 1.6 | 0.00 | 0.00 | 0.00 | 66 | 1016.0 |
| 20260502123341 | 3 | 117 | 0.0 | 0.0 | 0.00 | 0.00 | 0.00 | 72 | 1015.9 |
| 20260502122838 | 1 | 160 | 0.0 | 0.0 | 0.00 | 0.00 | 0.00 | 82 | 1015.9 |
| 20260502122334 | 0 | 161 | 0.0 | 0.0 | 0.00 | 0.00 | 0.00 | 85 | 1016.1 |
| 20260502121833 | 0 | 161 | 0.0 | 0.0 | 0.00 | 0.00 | 0.00 | 86 | 1016.0 |
| 20260502121330 | 0 | 162 | 0.0 | 0.0 | 0.00 | 0.00 | 0.00 | 86 | 1016.1 |
| 20260502120827 | 0 | 73 | 0.0 | 0.0 | 0.00 | 0.00 | 0.00 | 87 | 1016.0 |
| 20260502120323 | -1 | 37 | 0.0 | 1.6 | 0.00 | 0.00 | 0.00 | 90 | 1016.1 |
| 20260502115821 | -2 | 47 | 0.0 | 0.0 | 0.00 | 0.00 | 0.00 | 92 | 1016.0 |
| 20260502115318 | -2 | 82 | 0.0 | 0.0 | 0.00 | 0.00 | 0.00 | 92 | 1016.1 |
| 20260502114814 | -2 | 86 | 0.0 | 0.0 | 0.00 | 0.00 | 0.00 | 91 | 1016.1 |
| 20260502114311 | -2 | 71 | 0.0 | 0.0 | 0.00 | 0.00 | 0.00 | 89 | 1016.1 |
| 20260502113808 | -3 | 102 | 0.0 | 0.0 | 0.00 | 0.00 | 0.00 | 90 | 1015.9 |
| 20260502113306 | -3 | 101 | 0.0 | 0.0 | 0.00 | 0.00 | 0.00 | 92 | 1016.2 |
| 20260502112804 | -3 | 88 | 0.0 | 0.0 | 0.00 | 0.00 | 0.00 | 94 | 1016.1 |
| 20260502112301 | -4 | 88 | 0.0 | 0.0 | 0.00 | 0.00 | 0.00 | 95 | 1015.9 |
| 20260502111758 | -4 | 65 | 0.0 | 0.0 | 0.00 | 0.00 | 0.00 | 99 | 1016.0 |
| 20260502111255 | -5 | 63 | 0.0 | 0.0 | 0.00 | 0.00 | 0.00 | 99 | 1016.1 |
| 20260502110753 | -5 | 91 | 0.0 | 0.0 | 0.00 | 0.00 | 0.00 | 99 | 1016.0 |
| 20260502110251 | -5 | 91 | 0.0 | 0.0 | 0.00 | 0.00 | 0.00 | 97 | 1016.0 |
| 20260502105748 | -5 | 91 | 0.0 | 0.0 | 0.00 | 0.00 | 0.00 | 99 | 1015.9 |
| 20260502105244 | -5 | 91 | 0.0 | 0.0 | 0.00 | 0.00 | 0.00 | 99 | 1016.1 |
| 20260502104742 | -5 | 91 | 0.0 | 0.0 | 0.00 | 0.00 | 0.00 | 99 | 1016.0 |
| 20260502104240 | -5 | 91 | 0.0 | 0.0 | 0.00 | 0.00 | 0.00 | 99 | 1016.0 |
| 20260502103737 | -5 | 91 | 0.0 | 0.0 | 0.00 | 0.00 | 0.00 | 99 | 1016.0 |
| 20260502103234 | -5 | 91 | 0.0 | 0.0 | 0.00 | 0.00 | 0.00 | 99 | 1015.9 |
| 20260502102731 | -5 | 91 | 0.0 | 0.0 | 0.00 | 0.00 | 0.00 | 99 | 1016.2 |
| 20260502102227 | -5 | 91 | 0.0 | 0.0 | 0.00 | 0.00 | 0.00 | 99 | 1016.1 |
| 20260502101726 | -5 | 92 | 0.0 | 0.0 | 0.00 | 0.00 | 0.00 | 99 | 1016.1 |
| 20260502101224 | -5 | 92 | 0.0 | 0.0 | 0.00 | 0.00 | 0.00 | 99 | 1016.1 |
| 20260502100721 | -5 | 92 | 0.0 | 0.0 | 0.00 | 0.00 | 0.00 | 99 | 1016.3 |
| 20260502100220 | -5 | 92 | 0.0 | 0.0 | 0.00 | 0.00 | 0.00 | 99 | 1016.4 |
| 20260502091154 | -4 | 92 | 0.0 | 0.0 | 0.00 | 0.00 | 0.00 | 99 | 1016.6 |
| 20260502090651 | -4 | 92 | 0.0 | 0.0 | 0.00 | 0.00 | 0.00 | 99 | 1016.3 |
| 20260502090148 | -4 | 92 | 0.0 | 0.0 | 0.00 | 0.00 | 0.00 | 99 | 1016.4 |
| 20260502080110 | -3 | 102 | 0.0 | 0.0 | 0.00 | 0.00 | 0.00 | 95 | 1016.8 |
| 20260502071038 | -3 | 102 | 0.0 | 0.0 | 0.00 | 0.00 | 0.00 | 93 | 1017.1 |
| 20260502070536 | -3 | 102 | 0.0 | 0.0 | 0.00 | 0.00 | 0.00 | 92 | 1017.0 |
| 20260502070033 | -2 | 102 | 0.0 | 0.0 | 0.00 | 0.00 | 0.00 | 90 | 1017.0 |
| 20260502065532 | -3 | 102 | 0.0 | 0.0 | 0.00 | 0.00 | 0.00 | 91 | 1017.3 |
| 20260502065029 | -3 | 102 | 0.0 | 0.0 | 0.00 | 0.00 | 0.00 | 91 | 1017.2 |
| 20260502064527 | -3 | 102 | 0.0 | 0.0 | 0.00 | 0.00 | 0.00 | 92 | 1017.1 |
| 20260502064024 | -3 | 102 | 0.0 | 0.0 | 0.00 | 0.00 | 0.00 | 92 | 1017.4 |
| 20260502063522 | -3 | 102 | 0.0 | 0.0 | 0.00 | 0.00 | 0.00 | 91 | 1017.4 |
| 20260502063020 | -3 | 102 | 0.0 | 0.0 | 0.00 | 0.00 | 0.00 | 90 | 1017.4 |
| 20260502062516 | -2 | 102 | 0.0 | 0.0 | 0.00 | 0.00 | 0.00 | 90 | 1017.4 |
| 20260502062015 | -2 | 102 | 0.0 | 0.0 | 0.00 | 0.00 | 0.00 | 90 | 1017.4 |
| 20260502061512 | -2 | 102 | 0.0 | 0.0 | 0.00 | 0.00 | 0.00 | 89 | 1017.4 |
| 20260502061009 | -2 | 102 | 0.0 | 0.0 | 0.00 | 0.00 | 0.00 | 89 | 1017.4 |
| 20260502060504 | -2 | 102 | 0.0 | 0.0 | 0.00 | 0.00 | 0.00 | 88 | 1017.3 |
| 20260502060001 | -2 | 102 | 0.0 | 0.0 | 0.00 | 0.00 | 0.00 | 88 | 1017.6 |
| 20260502055459 | -2 | 101 | 0.0 | 0.0 | 0.00 | 0.00 | 0.00 | 89 | 1017.5 |
| 20260502054958 | -2 | 101 | 0.0 | 0.0 | 0.00 | 0.00 | 0.00 | 89 | 1017.5 |
| 20260502054455 | -2 | 101 | 0.0 | 0.0 | 0.00 | 0.00 | 0.00 | 88 | 1017.5 |
| 20260502053952 | -2 | 102 | 0.0 | 0.0 | 0.00 | 0.00 | 0.00 | 88 | 1017.7 |
| 20260502053449 | -2 | 102 | 0.0 | 0.0 | 0.00 | 0.00 | 0.00 | 87 | 1017.6 |
| 20260502052947 | -2 | 102 | 0.0 | 0.0 | 0.00 | 0.00 | 0.00 | 85 | 1017.8 |
| 20260502052445 | -2 | 102 | 0.0 | 0.0 | 0.00 | 0.00 | 0.00 | 87 | 1017.5 |
| 20260502051944 | -2 | 102 | 0.0 | 0.0 | 0.00 | 0.00 | 0.00 | 86 | 1017.5 |
| 20260502051441 | -2 | 102 | 0.0 | 0.0 | 0.00 | 0.00 | 0.00 | 87 | 1017.5 |
| 20260502050938 | -2 | 102 | 0.0 | 0.0 | 0.00 | 0.00 | 0.00 | 87 | 1017.5 |
| 20260502050434 | -2 | 102 | 0.0 | 0.0 | 0.00 | 0.00 | 0.00 | 87 | 1017.4 |
| 20260502045932 | -2 | 102 | 0.0 | 0.0 | 0.00 | 0.00 | 0.00 | 85 | 1017.4 |
| 20260502045428 | -2 | 102 | 0.0 | 0.0 | 0.00 | 0.00 | 0.00 | 83 | 1017.6 |
| 20260502044925 | -1 | 102 | 0.0 | 0.0 | 0.00 | 0.00 | 0.00 | 84 | 1017.5 |
| 20260502044421 | -1 | 101 | 0.0 | 0.0 | 0.00 | 0.00 | 0.00 | 84 | 1017.7 |
| 20260502043918 | -1 | 51 | 0.0 | 0.0 | 0.00 | 0.00 | 0.00 | 84 | 1017.6 |
| 20260502043416 | -1 | 61 | 0.0 | 0.0 | 0.00 | 0.00 | 0.00 | 81 | 1017.7 |
| 20260502042915 | -1 | 69 | 0.0 | 0.0 | 0.00 | 0.00 | 0.00 | 83 | 1017.6 |
| 20260502042413 | -1 | 34 | 0.0 | 1.6 | 0.00 | 0.00 | 0.00 | 82 | 1017.6 |
| 20260502041910 | -1 | 101 | 0.0 | 0.0 | 0.00 | 0.00 | 0.00 | 81 | 1017.6 |
| 20260502041408 | -1 | 102 | 0.0 | 0.0 | 0.00 | 0.00 | 0.00 | 80 | 1017.6 |
| 20260502040905 | -1 | 102 | 0.0 | 0.0 | 0.00 | 0.00 | 0.00 | 78 | 1017.7 |
| 20260502040401 | -1 | 102 | 0.0 | 0.0 | 0.00 | 0.00 | 0.00 | 75 | 1017.6 |
| 20260502035857 | -1 | 102 | 0.0 | 0.0 | 0.00 | 0.00 | 0.00 | 76 | 1017.5 |
| 20260502035354 | -1 | 102 | 0.0 | 0.0 | 0.00 | 0.00 | 0.00 | 76 | 1017.7 |
| 20260502034851 | -1 | 102 | 0.0 | 0.0 | 0.00 | 0.00 | 0.00 | 76 | 1017.6 |
| 20260502034350 | -1 | 102 | 0.0 | 0.0 | 0.00 | 0.00 | 0.00 | 79 | 1017.7 |
| 20260502033848 | -1 | 102 | 0.0 | 0.0 | 0.00 | 0.00 | 0.00 | 75 | 1017.7 |
| 20260502033345 | 0 | 102 | 0.0 | 0.0 | 0.00 | 0.00 | 0.00 | 77 | 1017.7 |
| 20260502032841 | 0 | 102 | 0.0 | 0.0 | 0.00 | 0.00 | 0.00 | 75 | 1017.7 |
| 20260502032338 | 0 | 102 | 0.0 | 0.0 | 0.00 | 0.00 | 0.00 | 74 | 1017.7 |
| 20260502031836 | 0 | 101 | 0.0 | 0.0 | 0.00 | 0.00 | 0.00 | 77 | 1017.7 |
| 20260502031334 | 0 | 102 | 0.0 | 0.0 | 0.00 | 0.00 | 0.00 | 76 | 1017.7 |
| 20260502030832 | 0 | 102 | 0.0 | 0.0 | 0.00 | 0.00 | 0.00 | 77 | 1017.6 |
| 20260502030330 | 0 | 102 | 0.0 | 0.0 | 0.00 | 0.00 | 0.00 | 73 | 1017.7 |
| 20260502025826 | 0 | 101 | 0.0 | 0.0 | 0.00 | 0.00 | 0.00 | 72 | 1017.7 |
| 20260502025324 | 1 | 61 | 0.0 | 0.0 | 0.00 | 0.00 | 0.00 | 70 | 1017.6 |
| 20260502024822 | 1 | 61 | 0.0 | 0.0 | 0.00 | 0.00 | 0.00 | 66 | 1017.6 |
| 20260502024320 | 1 | 92 | 0.0 | 0.0 | 0.00 | 0.00 | 0.00 | 66 | 1017.6 |
| 20260502023817 | 1 | 105 | 0.0 | 0.0 | 0.00 | 0.00 | 0.00 | 68 | 1017.3 |
| 20260502023315 | 1 | 100 | 0.0 | 0.0 | 0.00 | 0.00 | 0.00 | 67 | 1017.7 |
| 20260502022813 | 1 | 106 | 0.0 | 0.0 | 0.00 | 0.00 | 0.00 | 68 | 1017.6 |
| 20260502022309 | 2 | 106 | 0.0 | 0.0 | 0.00 | 0.00 | 0.00 | 67 | 1017.5 |
| 20260502021805 | 2 | 106 | 0.0 | 0.0 | 0.00 | 0.00 | 0.00 | 59 | 1017.5 |
| 20260502021303 | 3 | 91 | 0.0 | 0.0 | 0.00 | 0.00 | 0.00 | 55 | 1017.4 |
| 20260502020800 | 2 | 30 | 0.0 | 1.6 | 0.00 | 0.00 | 0.00 | 62 | 1017.4 |
| 20260502020257 | 3 | 69 | 0.0 | 0.0 | 0.00 | 0.00 | 0.00 | 51 | 1017.5 |
| 20260502015755 | 3 | 104 | 0.0 | 0.0 | 0.00 | 0.00 | 0.00 | 53 | 1017.1 |
| 20260502015251 | 3 | 104 | 0.0 | 0.0 | 0.00 | 0.00 | 0.00 | 49 | 1017.5 |
| 20260502014748 | 4 | 104 | 0.0 | 0.0 | 0.00 | 0.00 | 0.00 | 50 | 1017.3 |
| 20260502014245 | 4 | 104 | 0.0 | 0.0 | 0.00 | 0.00 | 0.00 | 54 | 1017.2 |
| 20260502013742 | 5 | 107 | 0.0 | 0.0 | 0.00 | 0.00 | 0.00 | 49 | 1017.2 |
| 20260502013237 | 6 | 107 | 0.0 | 0.0 | 0.00 | 0.00 | 0.00 | 45 | 1017.2 |
| 20260502012734 | 6 | 109 | 0.0 | 0.0 | 0.00 | 0.00 | 0.00 | 42 | 1017.2 |
| 20260502012232 | 6 | 109 | 0.0 | 0.0 | 0.00 | 0.00 | 0.00 | 40 | 1017.2 |
| 20260502011729 | 7 | 109 | 0.0 | 0.0 | 0.00 | 0.00 | 0.00 | 40 | 1017.1 |
| 20260502011225 | 7 | 119 | 0.0 | 0.0 | 0.00 | 0.00 | 0.00 | 39 | 1017.1 |
| 20260502010723 | 7 | 119 | 0.0 | 0.0 | 0.00 | 0.00 | 0.00 | 39 | 1017.1 |
| 20260502010218 | 7 | 134 | 0.0 | 0.0 | 0.00 | 0.00 | 0.00 | 39 | 1017.2 |
| 20260502005716 | 8 | 153 | 0.0 | 0.0 | 0.00 | 0.00 | 0.00 | 39 | 1017.1 |
| 20260502005214 | 8 | 199 | 0.0 | 0.0 | 0.00 | 0.00 | 0.00 | 40 | 1017.2 |
| 20260502004710 | 8 | 325 | 0.0 | 0.0 | 0.00 | 0.00 | 0.00 | 38 | 1017.0 |
| 20260502004206 | 8 | 153 | 0.0 | 0.0 | 0.00 | 0.00 | 0.00 | 38 | 1017.1 |
| 20260502003704 | 8 | 265 | 0.0 | 0.0 | 0.00 | 0.00 | 0.00 | 38 | 1017.1 |
| 20260502003202 | 9 | 145 | 0.0 | 0.0 | 0.00 | 0.00 | 0.00 | 37 | 1016.9 |
| 20260502002657 | 9 | 111 | 0.0 | 0.0 | 0.00 | 0.00 | 0.00 | 35 | 1017.0 |
| 20260502002155 | 9 | 309 | 0.0 | 0.0 | 0.00 | 0.00 | 0.00 | 36 | 1016.9 |
| 20260502001652 | 10 | 77 | 0.0 | 0.0 | 0.00 | 0.00 | 0.00 | 33 | 1017.1 |
| 20260502001149 | 10 | 269 | 1.6 | 1.6 | 0.00 | 0.00 | 0.00 | 33 | 1017.0 |
| 20260502000647 | 10 | 267 | 0.0 | 0.0 | 0.00 | 0.00 | 0.00 | 32 | 1016.9 |
| 20260502000145 | 10 | 325 | 1.6 | 3.2 | 0.00 | 0.00 | 0.00 | 34 | 1016.9 |
| 20260501235641 | 10 | 239 | 3.2 | 3.2 | 0.00 | 0.00 | 0.00 | 32 | 1017.1 |
| 20260501235137 | 10 | 267 | 3.2 | 4.8 | 0.00 | 0.00 | 0.00 | 32 | 1017.0 |
| 20260501234632 | 11 | 280 | 4.8 | 4.8 | 0.00 | 0.00 | 0.00 | 30 | 1016.9 |
| 20260501234130 | 11 | 269 | 1.6 | 1.6 | 0.00 | 0.00 | 0.00 | 30 | 1016.8 |
| 20260501233628 | 11 | 190 | 3.2 | 4.8 | 0.00 | 0.00 | 0.00 | 28 | 1016.9 |
| 20260501233125 | 11 | 294 | 1.6 | 1.6 | 0.00 | 0.00 | 0.00 | 30 | 1016.9 |
| 20260501232621 | 11 | 265 | 3.2 | 3.2 | 0.00 | 0.00 | 0.00 | 30 | 1017.0 |
| 20260501232119 | 11 | 326 | 3.2 | 3.2 | 0.00 | 0.00 | 0.00 | 32 | 1016.9 |
| 20260501231616 | 11 | 274 | 8.0 | 9.7 | 0.00 | 0.00 | 0.00 | 32 | 1016.8 |
| 20260501231114 | 11 | 280 | 3.2 | 4.8 | 0.00 | 0.00 | 0.00 | 30 | 1016.9 |
| 20260501230612 | 11 | 30 | 1.6 | 3.2 | 0.00 | 0.00 | 0.00 | 33 | 1016.8 |
| 20260501230110 | 12 | 233 | 1.6 | 1.6 | 0.00 | 0.00 | 0.00 | 31 | 1016.8 |
| 20260501225607 | 12 | 26 | 6.4 | 9.7 | 0.00 | 0.00 | 0.00 | 34 | 1016.8 |
| 20260501225103 | 11 | 21 | 3.2 | 3.2 | 0.00 | 0.00 | 0.00 | 32 | 1016.8 |